Home > Weather > Larnaca > Past weeks

Flag for Cyprus Weather for the Past 2 Weeks in Larnaca, Cyprus

Now
57 °F

Passing clouds.


Feels Like: 55 °F
Forecast: 36 / 60 °F
Wind: 10 mph from North

Location: Larnaca Airport

Current Time: Feb 7, 2016 at 10:43:07 AM

Latest Report: Feb 7, 2016 at 10:00 AM


Visibility: N/A

Pressure: 29.98 "Hg

Humidity: 48%

Dew point: 37 °F

Location of LarnacaLocation

Historic Weather in Larnaca — Graph

°F

Larnaca Temperature Yesterday

Maximum temperature yesterday: 63 °F (at 12:30 PM)
Minimum temperature yesterday: 45 °F (at 10:30 PM)
Average temperature yesterday: 54 °F

High & Low Weather Summary for the Past Weeks

 TemperatureHumidityPressure
High70 °F (Feb 2, 1:30 PM)100% (Jan 23, 4:00 PM)30.45 "Hg (Jan 23, 4:00 PM)
Low34 °F (Jan 25, 6:30 AM)31% (Jan 25, 1:30 PM)29.77 "Hg (Feb 6, 2:00 PM)
Average52 °F70%30.17 "Hg
* Reported Jan 23 9:00 AM — Feb 7 9:30 AM, Larnaca, Weather by CustomWeather, © 2016

Note: Actual official high and low records may vary slightly from our data, if they occured in-between our weather recording intervals... More about our weather records

Advertising

Larnaca Weather History for the Previous 24 Hours

 ConditionsComfort  
Time TempWeatherWind HumidityBarometerVisibility
9:30 AM
Sun, Feb 7
57 °FPassing clouds.7 mph51%29.98 "HgN/A
9:00 AM55 °FPassing clouds.2 mph59%29.98 "HgN/A
8:30 AM52 °FPassing clouds.3 mph67%29.95 "HgN/A
8:00 AM50 °FPassing clouds.2 mph71%29.95 "HgN/A
7:30 AM45 °FPassing clouds.3 mph76%29.95 "HgN/A
7:00 AM45 °FPassing clouds.7 mph76%29.92 "HgN/A
6:30 AM43 °FPassing clouds.7 mph81%29.92 "HgN/A
6:00 AM45 °FPassing clouds.7 mph71%29.92 "HgN/A
5:30 AM48 °FPassing clouds.2 mph62%29.89 "HgN/A
5:00 AM45 °FPassing clouds.6 mph76%29.89 "HgN/A
4:30 AM43 °FPassing clouds.3 mph76%29.89 "HgN/A
4:00 AM45 °FPassing clouds.9 mph71%29.89 "HgN/A
3:30 AM45 °FPassing clouds.6 mph76%29.89 "HgN/A
3:00 AM45 °FPassing clouds.7 mph76%29.89 "HgN/A
2:30 AM46 °FPassing clouds.6 mph71%29.86 "HgN/A
2:00 AM43 °FPassing clouds.7 mph87%29.86 "HgN/A
1:00 AM46 °FPassing clouds.5 mph71%29.86 "HgN/A
12:30 AM46 °FPassing clouds.3 mph71%29.86 "HgN/A
12:00 AM48 °FPassing clouds.10 mph66%29.86 "HgN/A
11:00 PM
Sat, Feb 6
46 °FPassing clouds.6 mph82%29.83 "HgN/A
10:30 PM45 °FPassing clouds.7 mph93%29.83 "HgN/A
10:00 PM46 °FPassing clouds.6 mph87%29.83 "HgN/A
9:30 PM48 °FPassing clouds.10 mph82%29.83 "HgN/A
9:00 PM50 °FPassing clouds.13 mph82%29.83 "HgN/A
8:30 PM52 °FPassing clouds.15 mph77%29.83 "HgN/A
8:00 PM52 °FPassing clouds.9 mph77%29.80 "HgN/A
7:30 PM50 °FPassing clouds.9 mph88%29.80 "HgN/A
7:00 PM50 °FPassing clouds.3 mph88%29.80 "HgN/A
6:30 PM52 °FSprinkles. Passing clouds.7 mph77%29.80 "HgN/A
6:00 PM52 °FSprinkles. Passing clouds.6 mph77%29.80 "HgN/A
5:30 PM52 °FScattered showers. Passing clouds.6 mph72%29.77 "HgN/A
5:00 PM52 °FSprinkles. Passing clouds.13 mph72%29.77 "HgN/A
4:30 PM55 °FScattered showers. Passing clouds.12 mph63%29.77 "HgN/A
4:00 PM55 °FScattered showers. Passing clouds.14 mph63%29.77 "HgN/A
3:30 PM55 °FSprinkles. Passing clouds.18 mph63%29.77 "HgN/A
3:00 PM55 °FScattered showers. Passing clouds.15 mph63%29.77 "HgN/A
2:30 PM59 °FScattered showers. Passing clouds.6 mph59%29.77 "HgN/A
2:00 PM59 °FScattered showers. Passing clouds.10 mph55%29.77 "HgN/A
1:30 PM57 °FScattered showers. Passing clouds.12 mph59%29.80 "HgN/A
1:00 PM55 °FPassing clouds.22 mph59%29.80 "HgN/A
12:30 PM63 °FThunderstorms. Passing clouds.9 mph49%29.80 "HgN/A
12:00 PM57 °FScattered showers. Scattered clouds.16 mph59%29.80 "HgN/A
11:30 AM54 °FThunderstorms. Partly sunny.21 mph72%29.83 "Hg5 mi
11:00 AM59 °FScattered showers. Passing clouds.15 mph68%29.83 "HgN/A
10:30 AM59 °FScattered showers. Passing clouds.12 mph68%29.83 "HgN/A
10:00 AM57 °FScattered showers. Passing clouds.13 mph72%29.83 "HgN/A
Weather by CustomWeather, © 2016

See weather overviewHow to use our weather pages